Regional Weather Roundup
Issued by NWS

Home | Current Version | Previous Version | Graphics & Text | Print | Product List | Glossary On
Versions: 1 2 3 4 5 6 7 8 9 10 11 12 13 14 15 16 17 18 19 20 21 22 23 24 25 26 27 28 29 30 31 32 33 34 35 36 37 38 39 40 41 42 43 44 45 46 47 48 49 50
000
ASUS43 KIND 280509
RWRIN

WEATHER ROUNDUP FOR INDIANA
NATIONAL WEATHER SERVICE INDIANAPOLIS IN
100 AM EDT MON JUL 28 2014

NOTE: "FAIR" INDICATES FEW OR NO CLOUDS BELOW 12,000 FEET WITH NO
SIGNIFICANT WEATHER AND/OR OBSTRUCTIONS TO VISIBILITY.

* - STATION DOES NOT REPORT WEATHER SUCH AS PRECIPITATION OR FOG.

+ - STATION NOT QUALITY CONTROLLED BY THE NATIONAL WEATHER SERVICE.
    USE DATA WITH CAUTION...ESPECIALLY DEWPOINT AND RELATIVE
    HUMIDITY OBSERVATIONS.

INZ001>003-010>013-019-020-280600-
NORTHWEST INDIANA

CITY           SKY/WX    TMP DP  RH WIND       PRES   REMARKS
GARY /AIRPORT/ CLOUDY    65  60  84 N16G29    29.90S
KNOX *+        CLOUDY    64  58  81 NW15G22   29.85S
LA PORTE +     CLOUDY    63  58  85 N14G21    29.87S
MICHIGAN CITY+ CLOUDY    63  54  72 N16G25    29.87S
MONTICELLO +   MOCLDY    65  59  82 N7        29.84F
RENSSELAER +   RAIN      64  63  94 N8        29.88R
VALPARAISO     CLOUDY    63  58  83 N14G25    29.88R

$$

LMZ046-743>745-280600-
SOUTHERN LAKE MICHIGAN

STATION/POSITION TIME  TEMP WIND        PRES
                       AIR  DIR/SP/G
                 (UTC) (F)  (DEG/KT/KT) (MB)
BURNS HARBOR     0500   65  360/ 22/ 27 1012.2R
MICHIGAN CITY    0500   64  330/ 30/ 36   N/A

$$

INZ004-005-014>016-021>024-280600-
NORTH CENTRAL INDIANA

CITY           SKY/WX    TMP DP  RH WIND       PRES   REMARKS
GOSHEN         CLOUDY    65  59  81 NW13      29.81S
LOGANSPORT +   MOCLDY    64  55  72 NW8       29.84F
PERU/GRISSOM   MOCLDY    66  62  88 NW13      29.83S
ROCHESTER +    CLOUDY    64  59  82 NW15      29.84S
SOUTH BEND     CLOUDY    63  57  81 NW20G26   29.84S
WARSAW +       CLOUDY    63  59  88 NW9       29.82S

$$

INZ006>009-017-018-025>027-280600-
NORTHEAST INDIANA

CITY           SKY/WX    TMP DP  RH WIND       PRES   REMARKS
ANGOLA *+      MOCLDY    63  54  72 NW10      29.78F
AUBURN +       CLEAR     63  55  77 NW12G18   29.79S
FORT WAYNE     PTCLDY    63  58  83 W10       29.79S
HUNTINGTON +   CLEAR     63  57  81 W6        29.80S

$$

INZ028-029-035-036-043>045-051>053-280600-
WEST CENTRAL INDIANA

CITY           SKY/WX    TMP DP  RH WIND       PRES   REMARKS
GREENCASTLE +  CLEAR     68  57  68 NW7       29.87S
LAFAYETTE      CLEAR     63  58  83 W8        29.85S
TERRE HAUTE    CLEAR     69  58  67 W10       29.88F

$$

INZ030>032-037>040-046>048-054>057-064-065-280600-
CENTRAL INDIANA

CITY           SKY/WX    TMP DP  RH WIND       PRES   REMARKS
CP ATTERBURY + CLEAR     68  55  64 W7        29.85S
INDIANAPOLIS   CLEAR     67  57  70 W13       29.84S
-EAGLE CREEK   CLEAR     67  57  70 W14       29.84S
KOKOMO *+      MOCLDY    64  57  77 NW12G17   29.83S
MARION +       CLOUDY    64  58  83 NW9       29.83R
MT COMFORT *+  CLEAR     68  61  77 NW12      29.84S
SHELBYVILLE    CLEAR     69  57  65 NW12      29.83S
ZIONSVILLE +   CLEAR     65  56  74 NW5       29.85F

$$

INZ033-034-041-042-049-050-058-059-280600-
EAST CENTRAL INDIANA

CITY           SKY/WX    TMP DP  RH WIND       PRES   REMARKS
MUNCIE         CLEAR     65  58  78 NW10      29.81S

$$

INZ060-061-067>069-081>083-085>088-280600-
SOUTHWEST INDIANA

CITY           SKY/WX    TMP DP  RH WIND       PRES   REMARKS
EVANSVILLE     CLEAR     74  57  55 NW8G17    29.92R
WASHINGTON +   CLEAR     67  60  78 NW7       29.89S

$$

INZ062-063-066-070>080-084-089>092-280600-
SOUTH CENTRAL AND SOUTHEAST INDIANA

CITY           SKY/WX    TMP DP  RH WIND       PRES   REMARKS
BEDFORD +      CLEAR     70  55  60 W6        29.87
BLOOMINGTON    CLEAR     68  57  68 NW8       29.88R
NORTH VERNON + CLEAR     68  61  77 W6        29.85

$$



USA.gov is the U.S. government's official web portal to all federal, state and local government web resources and services.